[[{"header":{"parameterUnit":"m.s-1","parameterCategory":1,"la1":30.2991,"la2":30.254,"lo1":-89.0895,"lo2":-89.0444,"dy":0.0017,"dx":0.0017,"nx":28,"ny":28,"refTime":"2024-08-20T03:00:00:Z","depth":0,"parameterNumber":2,"parameterNumberName":"U-component_of_WINDS"},"data":[0,0,0,0,0,0,0,0,0,0,0,0,0,0,0,0,0,0,0,0,0,0,0,0,0,0,0,0,0,0,0,0,0,0,0,0,0,0,0,0,0,0,0,0,0,0,0,0,0,0,0,0,0,0,0,0,0,0,1.5449,1.5448,0,1.5408,1.5407,1.5407,1.5372,1.5371,1.5371,1.537,1.5326,1.5325,1.5324,0,0,0,0,0,0,0,0,0,0,0,0,0,1.5494,1.5494,1.5449,1.5448,1.5448,1.5408,1.5407,1.5407,1.5372,1.5371,1.5371,1.537,1.5326,1.5325,1.5324,0,0,0,0,0,0,0,0,0,0,0,0,0,1.5466,1.5493,1.5449,1.5426,1.5423,1.5408,1.5407,1.5407,1.5372,1.5371,1.5371,1.537,1.5326,1.5325,1.5324,1.5328,0,0,1.532,1.532,0,0,0,0,0,0,0,0,1.5468,1.5464,1.5429,1.5427,1.5424,1.5394,1.5407,1.538,1.5372,1.5391,1.537,1.537,1.5349,1.5346,1.5339,1.5326,1.5324,1.532,1.5319,1.5319,1.5318,0,0,0,0,0,0,0,1.547,1.5466,1.5432,1.5429,1.5426,1.5416,1.5412,1.5402,1.5374,1.5389,1.5387,1.5383,1.5347,1.534,1.5338,1.5323,1.532,1.5319,1.5318,1.5318,1.531,1.5311,0,0,0,0,0,0,1.5476,1.5468,1.5434,1.5431,1.5445,1.5416,1.5411,1.5404,1.5374,1.5368,1.5383,1.5381,1.5343,1.5339,1.5336,1.5338,1.5319,1.5318,1.5317,1.531,1.531,1.5311,0,0,0,0,0,0,1.5477,1.5473,1.5435,1.5449,1.5443,1.5416,1.5409,1.5404,1.5397,1.5369,1.5364,1.5381,1.5342,1.5338,1.533,1.5336,1.5317,1.5316,1.5309,1.531,1.5311,1.5342,0,0,0,0,0,0,1.5478,1.5474,1.5475,1.5449,1.5443,1.5431,1.5409,1.5404,1.5395,1.5392,1.5366,1.5361,1.5342,1.5332,1.5329,1.5334,1.5315,1.5308,1.5309,1.531,1.5341,1.5344,1.5347,0,0,0,0,0,1.548,1.5485,1.5476,1.5472,1.5444,1.5431,1.5428,1.5406,1.5396,1.5397,1.5379,1.5362,1.5336,1.5332,1.5328,1.5332,1.5308,1.5309,1.531,1.5339,1.5343,1.5347,0,0,0,0,0,0,1.5512,1.5481,1.547,1.5468,1.5452,1.5426,1.5426,1.5411,1.5398,1.5395,1.5368,1.5363,1.5358,1.5344,1.534,1.5334,1.532,1.532,1.5343,1.5347,1.535,1.5353,1.5314,0,0,0,0,0,1.5519,1.5511,1.5485,1.5485,1.5478,1.5454,1.5447,1.5432,1.5415,1.5408,1.5389,1.5372,1.5361,1.5353,1.5341,1.5339,1.5332,1.534,1.5344,1.5346,1.5347,1.5344,1.5347,1.5315,1.5315,1.5315,0,0,1.5532,1.5515,1.5512,1.5491,1.5478,1.547,1.5448,1.5441,1.5435,1.5406,1.5398,1.5384,1.5363,1.5359,1.5355,1.5347,1.5354,1.5348,1.535,1.5349,1.5346,1.5349,1.5351,1.5316,1.5316,1.5315,0,0,1.5553,1.554,1.5538,1.5525,1.5506,1.5489,1.5489,1.5465,1.5454,1.5446,1.5424,1.5416,1.5396,1.5382,1.5373,1.5389,1.5372,1.5386,1.5402,1.54,1.5403,1.5405,1.541,1.5412,1.5387,1.5387,1.5387,0,1.5572,1.556,1.5539,1.5533,1.5524,1.55,1.5497,1.5485,1.5462,1.5456,1.5448,1.5423,1.5407,1.5399,1.5403,1.5396,1.5394,1.5388,1.5404,1.5406,1.5408,1.5412,1.5414,1.5388,1.5388,1.5388,1.5388,0,1.5585,1.5577,1.5578,1.5557,1.5548,1.5544,1.5521,1.5515,1.5501,1.5485,1.5477,1.5458,1.544,1.5438,1.5423,1.5427,1.5422,1.541,1.5394,1.5413,1.5416,1.5418,1.5391,1.539,1.539,1.5389,0,0,1.5623,1.5591,1.5592,1.5582,1.5559,1.5552,1.5546,1.5531,1.5525,1.5511,1.5505,1.5489,1.5477,1.5466,1.545,1.5449,1.5462,1.5436,1.5435,1.544,1.5463,1.5472,1.5474,1.5451,1.5452,1.5452,1.5465,0,1.5639,1.5629,1.5609,1.5605,1.5597,1.5574,1.5569,1.5554,1.5539,1.553,1.5513,1.5502,1.5488,1.5481,1.5479,1.5461,1.5466,1.546,1.5444,1.5444,1.5449,1.5476,1.5486,1.5499,1.5466,1.5466,1.5466,0,1.5656,1.5643,1.5638,1.5616,1.5612,1.5608,1.5592,1.5583,1.5565,1.5555,1.5544,1.5526,1.5518,1.5506,1.5494,1.549,1.5483,1.5473,1.5473,1.547,1.5455,1.5472,1.5502,1.5504,1.5468,1.5468,1.5468,0,1.5683,1.5665,1.5659,1.5652,1.5626,1.5623,1.5612,1.5594,1.5586,1.5572,1.5566,1.5551,1.5542,1.5531,1.551,1.5502,1.55,1.5485,1.549,1.549,1.5489,1.5489,1.5517,1.5487,1.5487,1.5487,1.5487,0,1.5702,1.57,1.5671,1.5668,1.5664,1.5642,1.5639,1.5625,1.5609,1.5602,1.5581,1.5575,1.5548,1.5538,1.5522,1.5514,1.551,1.5501,1.5496,1.5502,1.5503,1.5496,1.5494,1.5487,1.5487,1.5487,1.5487,0,1.5731,1.5712,1.5705,1.5681,1.5675,1.5673,1.5652,1.5647,1.5632,1.5623,1.562,1.5596,1.5583,1.5561,1.5542,1.5531,1.5526,1.5519,1.5532,1.5529,1.5535,1.5534,1.5558,1.5559,1.5529,1.553,1.553,0,1.5744,1.5742,1.5718,1.5712,1.5702,1.5693,1.5685,1.5663,1.5655,1.5635,1.5632,1.5618,1.5606,1.5587,1.5567,1.5552,1.5543,1.5553,1.5541,1.5547,1.5542,1.5542,1.5541,1.5555,1.5555,1.5556,1.5556,0,1.5769,1.5759,1.5749,1.5735,1.5726,1.5714,1.5701,1.5697,1.5672,1.5665,1.5652,1.5642,1.5623,1.5609,1.5592,1.5579,1.5563,1.556,1.556,1.5565,1.5573,1.5568,1.5538,1.5559,1.5559,1.5559,1.5559,1.5559,1.5789,1.5786,1.5768,1.5757,1.5745,1.5734,1.5728,1.5713,1.5702,1.5685,1.5673,1.5661,1.5643,1.5618,1.5607,1.5596,1.5589,1.5589,1.5589,1.5589,1.5591,1.5576,1.5593,1.5593,1.5593,1.5593,1.5593,0,1.5811,1.5799,1.579,1.5772,1.5763,1.5751,1.5736,1.5729,1.5719,1.5704,1.5692,1.5678,1.5664,1.5644,1.5628,1.5624,1.5616,1.562,1.562,1.5617,1.5599,1.56,1.5627,1.5627,1.5627,1.5627,1.5627,1.5627,1.5822,1.5815,1.5804,1.5792,1.5779,1.5768,1.576,1.5749,1.5737,1.5722,1.5711,1.5698,1.5681,1.5664,1.5651,1.5645,1.564,1.5646,1.5638,1.5621,1.5618,1.5615,1.5616,1.5645,1.5646,1.5656,1.5656,1.5657]},{"header":{"parameterUnit":"m.s-1","parameterCategory":1,"la1":30.2991,"la2":30.254,"lo1":-89.0895,"lo2":-89.0444,"dy":0.0017,"dx":0.0017,"nx":28,"ny":28,"refTime":"2024-08-20T03:00:00:Z","depth":0,"parameterNumber":3,"parameterNumberName":"V-component_of_WINDS"},"data":[0,0,0,0,0,0,0,0,0,0,0,0,0,0,0,0,0,0,0,0,0,0,0,0,0,0,0,0,0,0,0,0,0,0,0,0,0,0,0,0,0,0,0,0,0,0,0,0,0,0,0,0,0,0,0,0,0,0,-3.7837,-3.7838,0,-3.7926,-3.7927,-3.7928,-3.7869,-3.7867,-3.7864,-3.7861,-3.7951,-3.7956,-3.7961,0,0,0,0,0,0,0,0,0,0,0,0,0,-3.7615,-3.7619,-3.7837,-3.7838,-3.7839,-3.7926,-3.7927,-3.7928,-3.787,-3.7866,-3.7863,-3.786,-3.7949,-3.7955,-3.7961,0,0,0,0,0,0,0,0,0,0,0,0,0,-3.7708,-3.7621,-3.7837,-3.782,-3.782,-3.7926,-3.7927,-3.7929,-3.787,-3.7866,-3.7862,-3.7859,-3.7947,-3.7955,-3.7962,-3.8088,0,0,-3.7984,-3.7987,0,0,0,0,0,0,0,0,-3.7703,-3.7717,-3.7822,-3.7822,-3.7821,-3.7882,-3.7882,-3.7982,-3.7871,-3.7851,-3.7861,-3.7857,-3.7931,-3.794,-3.7965,-3.8092,-3.8096,-3.7985,-3.7989,-3.7992,-3.7995,0,0,0,0,0,0,0,-3.7697,-3.7712,-3.7872,-3.7823,-3.7823,-3.7808,-3.7817,-3.79,-3.7913,-3.7853,-3.7849,-3.786,-3.793,-3.7958,-3.7967,-3.8097,-3.7985,-3.7991,-3.7996,-3.7999,-3.8333,-3.8337,0,0,0,0,0,0,-3.7692,-3.7707,-3.7869,-3.7875,-3.7751,-3.7816,-3.7825,-3.7867,-3.7912,-3.7915,-3.7863,-3.7857,-3.7948,-3.7958,-3.797,-3.8121,-3.7992,-3.7999,-3.8003,-3.8329,-3.8334,-3.8339,0,0,0,0,0,0,-3.7687,-3.7707,-3.7866,-3.779,-3.7809,-3.7824,-3.7871,-3.7871,-3.7899,-3.792,-3.7922,-3.789,-3.7945,-3.7959,-3.8059,-3.8124,-3.8003,-3.8009,-3.8323,-3.833,-3.8336,-3.8425,0,0,0,0,0,0,-3.7681,-3.7706,-3.7754,-3.7792,-3.7813,-3.7954,-3.7875,-3.7875,-3.7912,-3.7904,-3.7945,-3.7948,-3.7943,-3.8049,-3.8067,-3.8132,-3.8015,-3.8318,-3.8326,-3.8334,-3.8417,-3.8434,-3.8449,0,0,0,0,0,-3.7674,-3.7775,-3.7757,-3.7777,-3.7874,-3.7958,-3.7971,-3.7963,-3.7917,-3.7966,-3.7979,-3.7947,-3.8114,-3.8059,-3.8079,-3.8147,-3.8314,-3.8324,-3.8334,-3.8409,-3.8431,-3.8449,0,0,0,0,0,0,-3.7744,-3.7779,-3.776,-3.7876,-3.7915,-3.7948,-3.8009,-3.7986,-3.8038,-3.8029,-3.8017,-3.8026,-3.8131,-3.8149,-3.8088,-3.8272,-3.8206,-3.8221,-3.8257,-3.8277,-3.8293,-3.8287,-3.8021,0,0,0,0,0,-3.7773,-3.7839,-3.7866,-3.7966,-3.7986,-3.7995,-3.8031,-3.8022,-3.8061,-3.8077,-3.8098,-3.8137,-3.8198,-3.8238,-3.8296,-3.8419,-3.8427,-3.8475,-3.8491,-3.8505,-3.8518,-3.8585,-3.8607,-3.8372,-3.8372,-3.8372,0,0,-3.7834,-3.7861,-3.7903,-3.7981,-3.801,-3.8078,-3.8009,-3.8083,-3.8134,-3.8088,-3.8184,-3.8201,-3.8243,-3.8356,-3.8406,-3.8374,-3.8584,-3.8517,-3.8528,-3.8534,-3.8597,-3.862,-3.8639,-3.8379,-3.8378,-3.8377,0,0,-3.7979,-3.8007,-3.8094,-3.8124,-3.8169,-3.8174,-3.8195,-3.8232,-3.8242,-3.8338,-3.8305,-3.8365,-3.847,-3.8502,-3.8532,-3.8691,-3.8663,-3.8709,-3.8795,-3.886,-3.8879,-3.8895,-3.8953,-3.8974,-3.8722,-3.8722,-3.8722,0,-3.8049,-3.8151,-3.8141,-3.8219,-3.8254,-3.8217,-3.8305,-3.8334,-3.8395,-3.8421,-3.8383,-3.8516,-3.8541,-3.8661,-3.87,-3.8725,-3.8749,-3.8705,-3.8877,-3.8893,-3.8909,-3.8963,-3.8985,-3.8728,-3.8727,-3.8727,-3.8726,0,-3.8235,-3.8306,-3.8371,-3.8432,-3.8474,-3.8557,-3.856,-3.8604,-3.8591,-3.86,-3.8699,-3.8728,-3.8792,-3.8819,-3.8807,-3.8938,-3.8916,-3.8879,-3.8812,-3.8937,-3.8988,-3.9009,-3.8736,-3.8734,-3.8732,-3.8731,0,0,-3.8428,-3.8483,-3.8507,-3.8535,-3.8581,-3.8636,-3.8717,-3.8779,-3.8818,-3.8861,-3.8929,-3.9019,-3.8985,-3.9019,-3.901,-3.9068,-3.9193,-3.9023,-3.9023,-3.9054,-3.9339,-3.9368,-3.9393,-3.9174,-3.9178,-3.9181,-3.9336,0,-3.8577,-3.8719,-3.8713,-3.8846,-3.8912,-3.8877,-3.8947,-3.8983,-3.8994,-3.9051,-3.9062,-3.9127,-3.9076,-3.9096,-3.9152,-3.9166,-3.925,-3.9154,-3.9237,-3.924,-3.9229,-3.9419,-3.945,-3.9595,-3.9356,-3.9359,-3.9362,0,-3.8771,-3.8822,-3.8961,-3.8999,-3.9026,-3.909,-3.9147,-3.9202,-3.9242,-3.9246,-3.9285,-3.9267,-3.9348,-3.9279,-3.9392,-3.9327,-3.9361,-3.9373,-3.9378,-3.9386,-3.9309,-3.9434,-3.9641,-3.9664,-3.9393,-3.9391,-3.9388,0,-3.8899,-3.9002,-3.9099,-3.9124,-3.917,-3.9215,-3.9237,-3.9273,-3.9311,-3.9361,-3.9386,-3.9444,-3.9476,-3.9522,-3.952,-3.947,-3.9635,-3.9565,-3.964,-3.9641,-3.9677,-3.9675,-3.9894,-3.9697,-3.9697,-3.9696,-3.9696,0,-3.9067,-3.9154,-3.9158,-3.9218,-3.9314,-3.9306,-3.9401,-3.9418,-3.9451,-3.9513,-3.9485,-3.9544,-3.9538,-3.9598,-3.9596,-3.9691,-3.9705,-3.971,-3.9709,-3.9714,-3.9713,-3.9736,-3.9726,-3.9702,-3.9701,-3.97,-3.9699,0,-3.9227,-3.9233,-3.9336,-3.9372,-3.9383,-3.9453,-3.9483,-3.9539,-3.9547,-3.9627,-3.9645,-3.9658,-3.9726,-3.9729,-3.9807,-3.9806,-3.9922,-3.9908,-3.9908,-3.9906,-3.9982,-3.9975,-4.0224,-4.0257,-4.0037,-4.0039,-4.0041,0,-3.9334,-3.9401,-3.9443,-3.9484,-3.9508,-3.9573,-3.9612,-3.9606,-3.9648,-3.97,-3.9751,-3.9817,-3.9869,-3.998,-3.9996,-4.0057,-4.0045,-4.0128,-4.0054,-4.0057,-4.0048,-4.0045,-4.0052,-4.0143,-4.0146,-4.0148,-4.0149,0,-3.9525,-3.9525,-3.9583,-3.9642,-3.969,-3.9736,-3.9779,-3.9814,-3.9813,-3.9861,-3.9932,-3.9973,-4.0053,-4.012,-4.0178,-4.0199,-4.0175,-4.0172,-4.0193,-4.0199,-4.0197,-4.02,-3.9949,-4.0167,-4.0165,-4.0164,-4.0163,-4.0162,-3.9663,-3.972,-3.976,-3.9826,-3.9857,-3.9898,-3.9954,-3.9969,-4.0028,-4.0094,-4.0087,-4.0165,-4.0204,-4.028,-4.0306,-4.0367,-4.0339,-4.0368,-4.0376,-4.0384,-4.0393,-4.0186,-4.0378,-4.0377,-4.0377,-4.0376,-4.0376,0,-3.9853,-3.9877,-3.9937,-3.9999,-4.0051,-4.0023,-4.0069,-4.0114,-4.0184,-4.0223,-4.0275,-4.0357,-4.0421,-4.0442,-4.0504,-4.0549,-4.054,-4.0566,-4.0563,-4.0569,-4.0414,-4.0391,-4.0573,-4.0573,-4.0573,-4.0573,-4.0573,-4.0573,-3.9958,-4.0055,-4.0059,-4.0171,-4.0194,-4.0272,-4.0301,-4.0338,-4.0369,-4.0461,-4.0515,-4.0529,-4.056,-4.0625,-4.0683,-4.0687,-4.0712,-4.0743,-4.0743,-4.0599,-4.0579,-4.056,-4.0538,-4.0748,-4.0749,-4.0893,-4.0894,-4.0895]}]]